Regional Weather Roundup
Issued by NWS Charleston, WV

Home | Current Version | Previous Version | Graphics & Text | Print | Product List | Glossary On
Versions: 1 2 3 4 5 6 7 8 9 10 11 12 13 14 15 16 17 18 19 20 21 22 23 24 25 26 27 28 29 30 31 32 33 34 35 36 37 38 39 40 41 42 43 44 45 46 47 48 49 50
000
ASUS41 KRLX 270610
RWRRLX
West Virginia Regional Weather Roundup
National Weather Service Charleston WV
200 AM EDT WED AUG 27 2014

Note: "fair" indicates few or no clouds below 12,000 feet with no
significant weather and/or obstructions to visibility.

WVZ003-270700-
Northern Panhandle of West Virginia

CITY           SKY/WX    TMP DP  RH WIND       PRES   REMARKS
WHEELING         N/A     69  64  84 CALM      30.11S
$$

WVZ009-270700-
Northwest West Virginia

CITY           SKY/WX    TMP DP  RH WIND       PRES   REMARKS
PARKERSBURG      N/A     65  63  93 CALM      30.13R
$$

WVZ006-270700-
Western West Virginia

CITY           SKY/WX    TMP DP  RH WIND       PRES   REMARKS
HUNTINGTON       N/A     64  64 100 CALM      30.10S FOG
$$

WVZ015-270700-
West Central West Virginia

CITY           SKY/WX    TMP DP  RH WIND       PRES   REMARKS
CHARLESTON       N/A     63  63 100 CALM      30.10F
$$

WVZ031-270700-
North Central West Virginia

CITY           SKY/WX    TMP DP  RH WIND       PRES   REMARKS
CLARKSBURG       N/A     62  59  90 CALM      30.10F
MORGANTOWN       N/A     66  60  81 N3        30.11S
$$

WVZ035-042-045-270700-
South Central West Virginia

CITY           SKY/WX    TMP DP  RH WIND       PRES   REMARKS
BECKLEY          N/A     60  54  80 CALM      30.18F
BLUEFIELD        N/A     64  54  69 SE3       30.20F
LEWISBURG      FOG       56  54  93 CALM      30.18F VSB 3/4
$$

WVZ047-270700-
Northern Mountains of West Virginia

CITY           SKY/WX    TMP DP  RH WIND       PRES   REMARKS
ELKINS           N/A     57  55  93 CALM      30.16F
$$

WVZ052-270700-
Eastern Panhandle of West Virginia

CITY           SKY/WX    TMP DP  RH WIND       PRES   REMARKS
MARTINSBURG      N/A     62  58  86 CALM      30.09F
PETERSBURG     NOT AVBL
$$


USA.gov is the U.S. government's official web portal to all federal, state and local government web resources and services.